Back to catalog

STARLINK-31323

AliveCommunicationsVLEO
NORAD 58882·PAYLOAD·🇺🇸 United States

Launched Jan 29, 2024 from Vandenberg Space Force Base

Loading…

Next Passes (next 24 hours)

TLE

FreshSource: CelesTrak SupGP

Epoch: Sep 14, 2026, 13:58 UTC

1 58882C 24020G   26257.58243056  .00067582  00000+0  19972-2 0  2578
2 58882  53.1576 161.3389 0001322 106.7898 250.7058 15.34349754    11

Track STARLINK-31323 in real time with AllMySat

Download on the App Store